• In Netherlands
  • List of Countries
  • For 7 days
  • Water Temperature
  • Satellite Maps
  • Weather Map
  • Weather Widgets
  • user-avatar
    Login

    Hourly Weather Kaprun

    Today, 28 June, Wednesday

    Time Temperature Precipitation Wind Pressure Humidity
    00:00 +7°C° 0 mm 2 mps 594 mmHg 94%
    01:00 +8°C° 0 mm 3 mps 593 mmHg 93%
    02:00 +8°C° 0 mm 3 mps 593 mmHg 93%
    03:00 +8°C° 0 mm 3 mps 593 mmHg 93%
    04:00 +7°C° 0 mm 3 mps 592 mmHg 93%
    05:00 +9°C° 0 mm 3 mps 593 mmHg 90%
    06:00 +10°C° 0 mm 3 mps 593 mmHg 88%
    07:00 +11°C° 0 mm 3 mps 593 mmHg 83%
    08:00 +12°C° 0.5 mm 3 mps 594 mmHg 79%
    09:00 +13°C° 0.5 mm 3 mps 594 mmHg 75%
    10:00 +14°C° 0.5 mm 3 mps 594 mmHg 70%
    11:00 +14°C° 1.1 mm 3 mps 594 mmHg 70%
    12:00 +16°C° 1.1 mm 3 mps 594 mmHg 71%
    13:00 +14°C° 0 mm 3 mps 594 mmHg 74%
    14:00 +14°C° 1 mm 3 mps 593 mmHg 76%
    15:00 +13°C° 1 mm 3 mps 593 mmHg 77%
    16:00 +14°C° 1 mm 2 mps 592 mmHg 79%
    17:00 +13°C° 1.6 mm 2 mps 592 mmHg 83%
    18:00 +12°C° 1.6 mm 2 mps 591 mmHg 88%
    19:00 +10°C° 1.6 mm 2 mps 590 mmHg 92%
    20:00 +9°C° 1 mm 2 mps 590 mmHg 93%
    21:00 +8°C° 1 mm 2 mps 589 mmHg 94%
    22:00 +8°C° 1 mm 2 mps 589 mmHg 95%
    23:00 +7°C° 0.5 mm 2 mps 588 mmHg 95%

    Tomorrow, 29 June, Thursday

    Time Temperature Precipitation Wind Pressure Humidity
    00:00 +7°C° 0.5 mm 2 mps 588 mmHg 96%
    01:00 +7°C° 0.5 mm 2 mps 588 mmHg 96%
    02:00 +6°C° 0.8 mm 2 mps 587 mmHg 96%
    03:00 +7°C° 0.8 mm 1 mps 587 mmHg 96%
    04:00 +7°C° 0.8 mm 1 mps 587 mmHg 97%
    05:00 +7°C° 0.7 mm 1 mps 587 mmHg 96%
    06:00 +8°C° 0.7 mm 1 mps 588 mmHg 94%
    07:00 +8°C° 0.7 mm 1 mps 588 mmHg 93%
    08:00 +9°C° 0.4 mm 1 mps 589 mmHg 90%
    09:00 +10°C° 0.4 mm 1 mps 590 mmHg 86%
    10:00 +9°C° 0.4 mm 2 mps 590 mmHg 83%
    11:00 +9°C° 0.5 mm 2 mps 590 mmHg 83%
    12:00 +9°C° 0.5 mm 2 mps 591 mmHg 83%
    13:00 +9°C° 0.5 mm 2 mps 591 mmHg 84%
    14:00 +9°C° 0.7 mm 2 mps 591 mmHg 85%
    15:00 +9°C° 0.7 mm 2 mps 591 mmHg 86%
    16:00 +9°C° 0.7 mm 2 mps 591 mmHg 87%
    17:00 +9°C° 0.7 mm 2 mps 591 mmHg 89%
    18:00 +8°C° 0.7 mm 2 mps 591 mmHg 92%
    19:00 +8°C° 0.7 mm 2 mps 591 mmHg 94%
    20:00 +7°C° 1 mm 2 mps 591 mmHg 95%
    21:00 +7°C° 1 mm 1 mps 591 mmHg 97%
    22:00 +6°C° 1 mm 1 mps 591 mmHg 98%
    23:00 +5°C° 0.3 mm 1 mps 591 mmHg 98%

    Day after tomorrow, 30 June, Friday

    Time Temperature Precipitation Wind Pressure Humidity
    00:00 +5°C° 0.3 mm 1 mps 591 mmHg 97%
    01:00 +4°C° 0.3 mm 1 mps 591 mmHg 97%
    02:00 +4°C° 0.3 mm 1 mps 591 mmHg 97%
    03:00 +4°C° 0.3 mm 1 mps 591 mmHg 97%
    04:00 +4°C° 0.3 mm 1 mps 591 mmHg 97%
    05:00 +5°C° 0.3 mm 1 mps 592 mmHg 95%
    06:00 +6°C° 0.3 mm 1 mps 592 mmHg 94%
    07:00 +6°C° 0.3 mm 1 mps 593 mmHg 92%
    08:00 +6°C° 0.3 mm 2 mps 594 mmHg 88%
    09:00 +7°C° 0.3 mm 2 mps 594 mmHg 83%
    10:00 +8°C° 0.3 mm 3 mps 595 mmHg 78%
    11:00 +8°C° 0.7 mm 3 mps 595 mmHg 78%
    12:00 +9°C° 0.7 mm 3 mps 595 mmHg 77%
    13:00 +9°C° 0.7 mm 3 mps 595 mmHg 77%
    14:00 +9°C° 0.6 mm 3 mps 595 mmHg 78%
    15:00 +9°C° 0.6 mm 3 mps 595 mmHg 78%
    16:00 +8°C° 0.6 mm 3 mps 595 mmHg 79%
    17:00 +8°C° 0.6 mm 2 mps 595 mmHg 82%
    18:00 +7°C° 0.6 mm 2 mps 594 mmHg 85%
    19:00 +7°C° 0.6 mm 2 mps 594 mmHg 88%
    20:00 +5°C° 0.5 mm 2 mps 594 mmHg 91%
    21:00 +5°C° 0.5 mm 1 mps 593 mmHg 93%
    22:00 +4°C° 0.5 mm 1 mps 593 mmHg 96%
    23:00 +3°C° 0.4 mm 1 mps 593 mmHg 96%

    1 July, Saturday

    Time Temperature Precipitation Wind Pressure Humidity
    00:00 +2°C° 0.4 mm 1 mps 592 mmHg 96%
    01:00 +2°C° 0.4 mm 1 mps 592 mmHg 96%
    02:00 +2°C° 0.3 mm 1 mps 592 mmHg 96%
    03:00 +2°C° 0.3 mm 1 mps 593 mmHg 96%
    04:00 +2°C° 0.3 mm 1 mps 593 mmHg 95%
    05:00 +4°C° 0.1 mm 1 mps 594 mmHg 92%
    06:00 +5°C° 0.1 mm 1 mps 595 mmHg 89%
    07:00 +6°C° 0.1 mm 1 mps 595 mmHg 85%
    08:00 +8°C° 0 mm 1 mps 596 mmHg 77%
    09:00 +10°C° 0 mm 1 mps 597 mmHg 70%
    10:00 +11°C° 0 mm 1 mps 598 mmHg 62%
    11:00 +12°C° 0.3 mm 1 mps 598 mmHg 64%
    12:00 +12°C° 0.3 mm 2 mps 597 mmHg 66%
    13:00 +12°C° 0.3 mm 2 mps 597 mmHg 67%
    14:00 +10°C° 0.8 mm 2 mps 597 mmHg 72%
    15:00 +10°C° 0.8 mm 2 mps 597 mmHg 77%
    16:00 +10°C° 0.8 mm 1 mps 597 mmHg 81%
    17:00 +9°C° 0.9 mm 1 mps 596 mmHg 86%
    18:00 +8°C° 0.9 mm 1 mps 596 mmHg 91%
    19:00 +7°C° 0.9 mm 1 mps 596 mmHg 95%
    20:00 +7°C° 1.1 mm 1 mps 596 mmHg 96%
    21:00 +6°C° 1.1 mm 1 mps 596 mmHg 97%
    22:00 +5°C° 1.1 mm 1 mps 596 mmHg 97%
    23:00 +5°C° 0.3 mm 1 mps 596 mmHg 97%

    2 July, Sunday

    Time Temperature Precipitation Wind Pressure Humidity
    00:00 +4°C° 0.3 mm 1 mps 595 mmHg 97%
    01:00 +4°C° 0.3 mm 1 mps 595 mmHg 97%
    02:00 +4°C° 0.1 mm 1 mps 595 mmHg 97%
    03:00 +4°C° 0.1 mm 1 mps 595 mmHg 97%
    04:00 +3°C° 0.1 mm 2 mps 596 mmHg 97%
    05:00 +3°C° 0.5 mm 2 mps 596 mmHg 95%
    06:00 +4°C° 0.5 mm 2 mps 597 mmHg 94%
    07:00 +5°C° 0.5 mm 2 mps 597 mmHg 93%
    08:00 +5°C° 0.7 mm 2 mps 598 mmHg 90%
    09:00 +6°C° 0.7 mm 2 mps 598 mmHg 86%
    10:00 +7°C° 0.7 mm 2 mps 599 mmHg 83%
    11:00 +7°C° 0.5 mm 2 mps 599 mmHg 81%
    12:00 +7°C° 0.5 mm 2 mps 599 mmHg 80%
    13:00 +8°C° 0.5 mm 2 mps 600 mmHg 79%
    14:00 +8°C° 0.3 mm 2 mps 600 mmHg 80%
    15:00 +7°C° 0.3 mm 2 mps 600 mmHg 80%
    16:00 +7°C° 0.3 mm 2 mps 600 mmHg 80%
    17:00 +7°C° 0.1 mm 2 mps 600 mmHg 83%
    18:00 +6°C° 0.1 mm 2 mps 600 mmHg 85%
    19:00 +6°C° 0.1 mm 2 mps 600 mmHg 88%
    20:00 +5°C° 0 mm 2 mps 600 mmHg 90%
    21:00 +4°C° 0 mm 2 mps 600 mmHg 92%
    22:00 +3°C° 0 mm 2 mps 599 mmHg 94%
    23:00 +3°C° 0.1 mm 2 mps 599 mmHg 93%

    3 July, Monday

    Time Temperature Precipitation Wind Pressure Humidity
    00:00 +3°C° 0.1 mm 2 mps 599 mmHg 93%
    01:00 +3°C° 0.1 mm 2 mps 599 mmHg 92%
    02:00 +2°C° 0.1 mm 2 mps 599 mmHg 92%
    03:00 +2°C° 0.1 mm 2 mps 599 mmHg 92%
    04:00 +2°C° 0.1 mm 2 mps 599 mmHg 92%
    05:00 +3°C° 0.2 mm 2 mps 599 mmHg 90%
    06:00 +5°C° 0.2 mm 2 mps 600 mmHg 87%
    07:00 +6°C° 0.2 mm 2 mps 601 mmHg 85%
    08:00 +7°C° 0.1 mm 2 mps 601 mmHg 80%
    09:00 +10°C° 0.1 mm 1 mps 602 mmHg 74%
    10:00 +12°C° 0.1 mm 1 mps 603 mmHg 69%
    11:00 +12°C° 0.2 mm 2 mps 603 mmHg 67%
    12:00 +13°C° 0.2 mm 2 mps 603 mmHg 66%
    13:00 +13°C° 0.2 mm 2 mps 603 mmHg 64%
    14:00 +13°C° 0.3 mm 2 mps 602 mmHg 69%
    15:00 +13°C° 0.3 mm 2 mps 602 mmHg 73%
    16:00 +12°C° 0.3 mm 2 mps 602 mmHg 78%
    17:00 +10°C° 0.3 mm 2 mps 602 mmHg 82%
    18:00 +9°C° 0.3 mm 2 mps 601 mmHg 87%
    19:00 +10°C° 0.3 mm 1 mps 601 mmHg 92%
    20:00 +8°C° 0.2 mm 1 mps 601 mmHg 94%
    21:00 +7°C° 0.2 mm 1 mps 601 mmHg 96%
    22:00 +6°C° 0.2 mm 1 mps 601 mmHg 97%
    23:00 +6°C° 0.1 mm 1 mps 600 mmHg 97%
    Show more